Total_Precipitation_Accumulation
0.05 0.06 0.07 0.07 0.06 0.03 0.01 0.00 0.00 0.00 0.00 0.00 0.00 0.02 0.05 0.07 0.08 0.05 0.01 0.00 0.00 0.00 0.00 0.00 0.00 0.00 0.00 0.00 0.00 0.00 0.00 0.00 0.00 0.00 0.00 0.00 0.00 0.00 0.00 0.00 0.00 0.00 0.00 0.00 0.00
0.03 0.05 0.06 0.08 0.10 0.07 0.03 0.00 0.00 0.00 0.00 0.00 0.00 0.01 0.06 0.10 0.07 0.04 0.00 0.00 0.02 0.01 0.00 0.00 0.00 0.00 0.00 0.00 0.00 0.00 0.00 0.00 0.00 0.00 0.00 0.00 0.00 0.00 0.00 0.00 0.00 0.00 0.00 0.00 0.00
0.05 0.05 0.06 0.07 0.08 0.09 0.07 0.02 0.00 0.00 0.00 0.00 0.00 0.00 0.01 0.04 0.09 0.02 0.00 0.01 0.16 0.22 0.01 0.00 0.00 0.00 0.00 0.00 0.00 0.00 0.00 0.00 0.00 0.00 0.00 0.00 0.00 0.00 0.00 0.00 0.00 0.00 0.00 0.00 0.00
0.06 0.06 0.06 0.07 0.08 0.10 0.10 0.06 0.01 0.00 0.00 0.00 0.00 0.00 0.00 0.01 0.01 0.00 0.00 0.00 0.08 0.35 0.03 0.00 0.00 0.00 0.00 0.00 0.00 0.00 0.00 0.00 0.00 0.00 0.00 0.00 0.00 0.00 0.00 0.00 0.00 0.00 0.00 0.00 0.00
0.05 0.07 0.08 0.08 0.09 0.09 0.10 0.08 0.03 0.00 0.00 0.00 0.00 0.00 0.00 0.00 0.00 0.00 0.00 0.00 0.00 0.10 0.08 0.01 0.00 0.00 0.00 0.00 0.00 0.00 0.00 0.00 0.00 0.00 0.00 0.00 0.00 0.00 0.00 0.00 0.00 0.00 0.00 0.00 0.00
0.05 0.07 0.08 0.10 0.09 0.08 0.08 0.08 0.09 0.02 0.00 0.00 0.00 0.00 0.00 0.00 0.00 0.00 0.00 0.00 0.00 0.03 0.09 0.05 0.01 0.00 0.00 0.00 0.00 0.00 0.00 0.00 0.00 0.00 0.00 0.00 0.00 0.00 0.00 0.00 0.00 0.00 0.00 0.00 0.00
0.04 0.06 0.07 0.09 0.09 0.06 0.08 0.10 0.10 0.06 0.00 0.00 0.01 0.01 0.00 0.00 0.00 0.00 0.00 0.00 0.00 0.05 0.06 0.04 0.00 0.00 0.00 0.00 0.00 0.00 0.00 0.00 0.00 0.00 0.00 0.00 0.00 0.00 0.00 0.00 0.00 0.00 0.00 0.00 0.00
0.07 0.07 0.08 0.10 0.10 0.09 0.09 0.11 0.16 0.15 0.04 0.00 0.00 0.00 0.00 0.00 0.00 0.00 0.00 0.00 0.00 0.02 0.05 0.01 0.00 0.00 0.00 0.00 0.00 0.00 0.00 0.00 0.00 0.00 0.00 0.00 0.00 0.00 0.00 0.00 0.00 0.00 0.00 0.00 0.00
0.05 0.05 0.08 0.12 0.13 0.11 0.12 0.16 0.26 0.26 0.13 0.03 0.00 0.00 0.00 0.00 0.00 0.00 0.00 0.00 0.00 0.00 0.01 0.01 0.00 0.00 0.00 0.00 0.00 0.00 0.00 0.00 0.00 0.00 0.00 0.00 0.00 0.00 0.00 0.00 0.00 0.00 0.00 0.00 0.00
0.04 0.06 0.06 0.09 0.15 0.17 0.30 0.30 0.37 0.40 0.30 0.17 0.00 0.00 0.00 0.00 0.00 0.00 0.00 0.00 0.00 0.00 0.00 0.00 0.00 0.00 0.00 0.00 0.00 0.00 0.00 0.00 0.00 0.00 0.00 0.00 0.00 0.00 0.00 0.00 0.00 0.00 0.00 0.00 0.00
0.03 0.03 0.07 0.15 0.21 0.30 0.64 0.77 0.73 0.49 0.34 0.12 0.01 0.00 0.00 0.00 0.00 0.00 0.00 0.00 0.00 0.00 0.00 0.00 0.00 0.00 0.00 0.00 0.00 0.00 0.00 0.00 0.00 0.00 0.00 0.00 0.00 0.00 0.00 0.00 0.00 0.00 0.00 0.00 0.00
0.06 0.10 0.15 0.19 0.29 0.61 0.77 0.77 0.51 0.32 0.17 0.03 0.00 0.00 0.00 0.00 0.00 0.00 0.00 0.00 0.00 0.00 0.00 0.00 0.00 0.00 0.00 0.00 0.00 0.00 0.00 0.00 0.00 0.00 0.00 0.00 0.00 0.00 0.00 0.00 0.00 0.00 0.00 0.00 0.00
0.12 0.11 0.22 0.31 0.34 0.63 0.69 0.48 0.34 0.39 0.19 0.03 0.00 0.00 0.00 0.00 0.00 0.00 0.00 0.00 0.00 0.00 0.00 0.00 0.00 0.00 0.00 0.00 0.00 0.00 0.00 0.00 0.00 0.00 0.00 0.00 0.00 0.00 0.00 0.00 0.00 0.00 0.00 0.00 0.00
0.19 0.20 0.26 0.40 0.61 0.60 0.59 0.42 0.47 0.44 0.27 0.05 0.03 0.00 0.00 0.00 0.00 0.00 0.00 0.00 0.00 0.00 0.00 0.00 0.00 0.00 0.00 0.00 0.00 0.00 0.00 0.00 0.00 0.00 0.00 0.00 0.00 0.00 0.00 0.00 0.00 0.00 0.00 0.00 0.00
0.19 0.20 0.23 0.55 0.72 0.55 0.51 0.47 0.47 0.67 0.58 0.03 0.01 0.01 0.01 0.00 0.00 0.00 0.00 0.00 0.00 0.00 0.00 0.00 0.00 0.00 0.00 0.00 0.00 0.00 0.00 0.00 0.00 0.01 0.01 0.00 0.02 0.00 0.00 0.00 0.00 0.00 0.00 0.00 0.00
0.20 0.19 0.21 0.44 0.73 0.46 0.47 0.94 0.82 0.97 0.46 0.04 0.01 0.04 0.03 0.01 0.01 0.00 0.01 0.02 0.01 0.01 0.00 0.00 0.00 0.00 0.00 0.00 0.00 0.00 0.00 0.00 0.00 0.04 0.05 0.00 0.00 0.00 0.00 0.00 0.00 0.00 0.00 0.00 0.00
0.14 0.10 0.11 0.41 0.49 0.37 0.78 1.22 1.26 0.65 0.12 0.03 0.02 0.03 0.02 0.01 0.02 0.01 0.02 0.03 0.01 0.02 0.03 0.01 0.00 0.00 0.00 0.00 0.00 0.01 0.06 0.03 0.02 0.07 0.02 0.00 0.00 0.00 0.00 0.00 0.00 0.00 0.00 0.00 0.00
0.24 0.15 0.07 0.22 0.48 0.50 1.05 1.22 0.68 0.15 0.03 0.02 0.01 0.02 0.02 0.01 0.02 0.02 0.02 0.03 0.00 0.00 0.00 0.01 0.00 0.00 0.00 0.00 0.01 0.00 0.01 0.01 0.00 0.00 0.00 0.00 0.00 0.00 0.00 0.00 0.00 0.00 0.00 0.00 0.00
0.32 0.15 0.13 0.39 0.53 0.78 0.99 0.92 0.29 0.06 0.00 0.01 0.02 0.04 0.04 0.01 0.01 0.02 0.02 0.00 0.00 0.00 0.01 0.00 0.00 0.00 0.00 0.00 0.00 0.04 0.06 0.01 0.03 0.01 0.02 0.00 0.00 0.00 0.00 0.00 0.00 0.00 0.00 0.00 0.00
0.48 0.18 0.29 0.46 0.53 0.96 0.87 0.44 0.18 0.04 0.00 0.00 0.01 0.01 0.01 0.02 0.01 0.01 0.01 0.00 0.00 0.00 0.00 0.00 0.00 0.00 0.00 0.00 0.00 0.01 0.01 0.05 0.15 0.06 0.02 0.00 0.00 0.00 0.00 0.00 0.00 0.00 0.00 0.00 0.00
0.15 0.35 0.39 0.68 0.68 1.06 0.99 0.43 0.13 0.02 0.00 0.00 0.00 0.00 0.00 0.00 0.00 0.00 0.00 0.00 0.00 0.00 0.00 0.00 0.02 0.01 0.01 0.00 0.00 0.01 0.03 0.07 0.08 0.07 0.09 0.07 0.02 0.01 0.04 0.02 0.02 0.04 0.01 0.00 0.00
0.26 0.53 0.59 0.76 1.41 0.87 0.55 0.30 0.14 0.03 0.00 0.00 0.00 0.00 0.00 0.00 0.00 0.00 0.00 0.00 0.00 0.00 0.00 0.00 0.04 0.03 0.00 0.00 0.00 0.00 0.00 0.01 0.12 0.05 0.17 0.26 0.14 0.02 0.06 0.07 0.07 0.04 0.00 0.00 0.00
0.39 0.68 0.93 0.51 0.76 0.34 0.24 0.27 0.13 0.02 0.01 0.00 0.00 0.00 0.00 0.00 0.01 0.00 0.00 0.00 0.00 0.00 0.00 0.00 0.05 0.02 0.00 0.01 0.04 0.06 0.01 0.05 0.15 0.33 0.39 0.35 0.10 0.02 0.03 0.02 0.01 0.00 0.01 0.00 0.00
0.64 1.03 1.37 0.93 0.26 0.05 0.05 0.19 0.10 0.02 0.00 0.00 0.00 0.00 0.00 0.00 0.00 0.01 0.00 0.00 0.00 0.00 0.00 0.00 0.01 0.00 0.00 0.00 0.03 0.07 0.03 0.07 0.31 0.53 0.22 0.19 0.03 0.01 0.00 0.00 0.01 0.03 0.04 0.01 0.00
0.52 0.58 0.41 0.48 0.20 0.08 0.03 0.05 0.05 0.01 0.00 0.00 0.00 0.00 0.00 0.01 0.01 0.02 0.00 0.00 0.00 0.00 0.00 0.01 0.03 0.00 0.00 0.00 0.10 0.21 0.14 0.11 0.53 0.25 0.24 0.06 0.03 0.00 0.02 0.06 0.09 0.03 0.02 0.01 0.00
0.50 0.41 0.13 0.08 0.04 0.05 0.04 0.04 0.06 0.01 0.00 0.00 0.00 0.00 0.01 0.02 0.00 0.00 0.00 0.01 0.00 0.00 0.01 0.01 0.02 0.01 0.01 0.10 0.32 0.32 0.11 0.14 0.18 0.17 0.19 0.03 0.02 0.07 0.12 0.08 0.15 0.05 0.03 0.02 0.01
0.40 0.38 0.17 0.10 0.07 0.08 0.03 0.01 0.04 0.02 0.01 0.01 0.00 0.02 0.02 0.02 0.05 0.03 0.06 0.03 0.00 0.00 0.01 0.01 0.01 0.03 0.04 0.17 0.36 0.39 0.20 0.11 0.11 0.07 0.08 0.05 0.01 0.02 0.04 0.01 0.08 0.04 0.03 0.02 0.02